Location: Andrest
(43.3200°N, 0.0641°E)
Time: 06:25:32
(UTC+00:00)

BREEZE-M DEB (TANK) - Pass Details

Date: 01 December 2020
Orbit: 433 x 13849 km, 45.9° (Epoch: 27 January)

Event Time Altitude Azimuth Distance (km) Brightness Sun altitude
Rises 17:34:22 0° 221° (SW) 4,199 7.9 -12.3°
Reaches altitude 10° 17:38:24 10° 209° (SSW) 2,325 6.2 -13.0°
Maximum altitude 17:42:02 24° 153° (SSE) 1,087 3.7 -13.6°
Enters shadow 17:43:24 18° 113° (ESE) 1,198 3.6 -13.9°
